Year,Month,Day,Hour,Minute,Value (Times are PST for temperature in C)
2014,11,28,00,00,11.30
2014,11,28,00,01,11.30
2014,11,28,00,02,11.30
2014,11,28,00,03,11.30
2014,11,28,00,04,11.30
2014,11,28,00,05,11.30
2014,11,28,00,06,11.30
2014,11,28,00,07,11.30
2014,11,28,00,08,11.30
2014,11,28,00,09,11.30
2014,11,28,00,10,11.30
2014,11,28,00,11,11.30
2014,11,28,00,12,11.30
2014,11,28,00,13,11.20
2014,11,28,00,14,11.20
2014,11,28,00,15,11.20
2014,11,28,00,16,11.20
2014,11,28,00,17,11.20
2014,11,28,00,18,11.20
2014,11,28,00,19,11.20
2014,11,28,00,20,11.20
2014,11,28,00,21,11.20
2014,11,28,00,22,11.20
2014,11,28,00,23,11.20
2014,11,28,00,24,11.20
2014,11,28,00,25,11.20
2014,11,28,00,26,11.20
2014,11,28,00,27,11.20
2014,11,28,00,28,11.20
2014,11,28,00,29,11.20
2014,11,28,00,30,11.20
2014,11,28,00,31,11.20
2014,11,28,00,32,11.20
2014,11,28,00,33,11.20
2014,11,28,00,34,11.20
2014,11,28,00,35,11.20
2014,11,28,00,36,11.20
2014,11,28,00,37,11.20
2014,11,28,00,38,11.20
2014,11,28,00,39,11.20
2014,11,28,00,40,11.20
2014,11,28,00,41,11.20
2014,11,28,00,42,11.20
2014,11,28,00,43,11.20
2014,11,28,00,44,11.20
2014,11,28,00,45,11.20
2014,11,28,00,46,11.20
2014,11,28,00,47,11.20
2014,11,28,00,48,11.20
2014,11,28,00,49,11.20
2014,11,28,00,50,11.30
2014,11,28,00,51,11.30
2014,11,28,00,52,11.30
2014,11,28,00,53,11.30
2014,11,28,00,54,11.30
2014,11,28,00,55,11.30
2014,11,28,00,56,11.30
2014,11,28,00,57,11.30
2014,11,28,00,58,11.30
2014,11,28,00,59,11.40
2014,11,28,01,00,11.40
2014,11,28,01,01,11.40
2014,11,28,01,02,11.40
2014,11,28,01,03,11.40
2014,11,28,01,04,11.40
2014,11,28,01,05,11.40
2014,11,28,01,06,11.40
2014,11,28,01,07,11.40
2014,11,28,01,08,11.30
2014,11,28,01,09,11.30
2014,11,28,01,10,11.30
2014,11,28,01,11,11.30
2014,11,28,01,12,11.30
2014,11,28,01,13,11.30
2014,11,28,01,14,11.30
2014,11,28,01,15,11.30
2014,11,28,01,16,11.30
2014,11,28,01,17,11.30
2014,11,28,01,18,11.30
2014,11,28,01,19,11.30
2014,11,28,01,20,11.30
2014,11,28,01,21,11.30
2014,11,28,01,22,11.30
2014,11,28,01,23,11.30
2014,11,28,01,24,11.20
2014,11,28,01,25,11.20
2014,11,28,01,26,11.20
2014,11,28,01,27,11.20
2014,11,28,01,28,11.20
2014,11,28,01,29,11.30
2014,11,28,01,30,11.30
2014,11,28,01,31,11.30
2014,11,28,01,32,11.20
2014,11,28,01,33,11.20
2014,11,28,01,34,11.20
2014,11,28,01,35,11.20
2014,11,28,01,36,11.20
2014,11,28,01,37,11.20
2014,11,28,01,38,11.20
2014,11,28,01,39,11.20
2014,11,28,01,40,11.20
2014,11,28,01,41,11.20
2014,11,28,01,42,11.10
2014,11,28,01,43,11.10
2014,11,28,01,44,11.10
2014,11,28,01,45,11.10
2014,11,28,01,46,11.10
2014,11,28,01,47,11.10
2014,11,28,01,48,11.10
2014,11,28,01,49,11.10
2014,11,28,01,50,11.00
2014,11,28,01,51,11.00
2014,11,28,01,52,11.00
2014,11,28,01,53,11.00
2014,11,28,01,54,10.90
2014,11,28,01,55,10.90
2014,11,28,01,56,10.90
2014,11,28,01,57,10.90
2014,11,28,01,58,10.90
2014,11,28,01,59,10.90
2014,11,28,02,00,10.90
2014,11,28,02,01,10.90
2014,11,28,02,02,10.90
2014,11,28,02,03,10.90
2014,11,28,02,04,10.90
2014,11,28,02,05,10.90
2014,11,28,02,06,10.90
2014,11,28,02,07,10.90
2014,11,28,02,08,10.90
2014,11,28,02,09,11.00
2014,11,28,02,10,11.00
2014,11,28,02,11,11.00
2014,11,28,02,12,11.00
2014,11,28,02,13,11.00
2014,11,28,02,14,11.00
2014,11,28,02,15,11.00
2014,11,28,02,16,11.10
2014,11,28,02,17,11.10
2014,11,28,02,18,11.10
2014,11,28,02,19,11.20
2014,11,28,02,20,11.20
2014,11,28,02,21,11.20
2014,11,28,02,22,11.20
2014,11,28,02,23,11.20
2014,11,28,02,24,11.20
2014,11,28,02,25,11.20
2014,11,28,02,26,11.10
2014,11,28,02,27,11.10
2014,11,28,02,28,11.10
2014,11,28,02,29,11.10
2014,11,28,02,30,11.00
2014,11,28,02,31,11.00
2014,11,28,02,32,10.90
2014,11,28,02,33,10.90
2014,11,28,02,34,10.90
2014,11,28,02,35,10.90
2014,11,28,02,36,10.80
2014,11,28,02,37,10.80
2014,11,28,02,38,10.80
2014,11,28,02,39,10.80
2014,11,28,02,40,10.80
2014,11,28,02,41,10.70
2014,11,28,02,42,10.70
2014,11,28,02,43,10.70
2014,11,28,02,44,10.70
2014,11,28,02,45,10.70
2014,11,28,02,46,10.60
2014,11,28,02,47,10.60
2014,11,28,02,48,10.60
2014,11,28,02,49,10.50
2014,11,28,02,50,10.50
2014,11,28,02,51,10.40
2014,11,28,02,52,10.40
2014,11,28,02,53,10.40
2014,11,28,02,54,10.40
2014,11,28,02,55,10.30
2014,11,28,02,56,10.30
2014,11,28,02,57,10.30
2014,11,28,02,58,10.20
2014,11,28,02,59,10.20
2014,11,28,03,00,10.10
2014,11,28,03,01,10.10
2014,11,28,03,02,10.10
2014,11,28,03,03,10.00
2014,11,28,03,04,10.00
2014,11,28,03,05,9.90
2014,11,28,03,06,9.90
2014,11,28,03,07,9.80
2014,11,28,03,08,9.80
2014,11,28,03,09,9.80
2014,11,28,03,10,9.80
2014,11,28,03,11,9.70
2014,11,28,03,12,9.70
2014,11,28,03,13,9.70
2014,11,28,03,14,9.60
2014,11,28,03,15,9.60
2014,11,28,03,16,9.60
2014,11,28,03,17,9.50
2014,11,28,03,18,9.50
2014,11,28,03,19,9.40
2014,11,28,03,20,9.40
2014,11,28,03,21,9.30
2014,11,28,03,22,9.30
2014,11,28,03,23,9.20
2014,11,28,03,24,9.20
2014,11,28,03,25,9.10
2014,11,28,03,26,9.10
2014,11,28,03,27,9.00
2014,11,28,03,28,9.00
2014,11,28,03,29,8.90
2014,11,28,03,30,8.90
2014,11,28,03,31,8.90
2014,11,28,03,32,8.80
2014,11,28,03,33,8.80
2014,11,28,03,34,8.80
2014,11,28,03,35,8.70
2014,11,28,03,36,8.70
2014,11,28,03,37,8.70
2014,11,28,03,38,8.70
2014,11,28,03,39,8.70
2014,11,28,03,40,8.60
2014,11,28,03,41,8.60
2014,11,28,03,42,8.60
2014,11,28,03,43,8.60
2014,11,28,03,44,8.60
2014,11,28,03,45,8.50
2014,11,28,03,46,8.50
2014,11,28,03,47,8.50
2014,11,28,03,48,8.40
2014,11,28,03,49,8.40
2014,11,28,03,50,8.40
2014,11,28,03,51,8.30
2014,11,28,03,52,8.30
2014,11,28,03,53,8.30
2014,11,28,03,54,8.30
2014,11,28,03,55,8.30
2014,11,28,03,56,8.30
2014,11,28,03,57,8.30
2014,11,28,03,58,8.30
2014,11,28,03,59,8.30
2014,11,28,04,00,8.30
2014,11,28,04,01,8.30
2014,11,28,04,02,8.20
2014,11,28,04,03,8.20
2014,11,28,04,04,8.20
2014,11,28,04,05,8.20
2014,11,28,04,06,8.20
2014,11,28,04,07,8.20
2014,11,28,04,08,8.20
2014,11,28,04,09,8.10
2014,11,28,04,10,8.10
2014,11,28,04,11,8.10
2014,11,28,04,12,8.00
2014,11,28,04,13,8.00
2014,11,28,04,14,8.00
2014,11,28,04,15,8.00
2014,11,28,04,16,7.90
2014,11,28,04,17,7.90
2014,11,28,04,18,7.90
2014,11,28,04,19,7.80
2014,11,28,04,20,7.80
2014,11,28,04,21,7.70
2014,11,28,04,22,7.70
2014,11,28,04,23,7.60
2014,11,28,04,24,7.60
2014,11,28,04,25,7.60
2014,11,28,04,26,7.50
2014,11,28,04,27,7.40
2014,11,28,04,28,7.40
2014,11,28,04,29,7.30
2014,11,28,04,30,7.30
2014,11,28,04,31,7.20
2014,11,28,04,32,7.20
2014,11,28,04,33,7.20
2014,11,28,04,34,7.10
2014,11,28,04,35,7.10
2014,11,28,04,36,7.00
2014,11,28,04,37,7.00
2014,11,28,04,38,6.90
2014,11,28,04,39,6.90
2014,11,28,04,40,6.90
2014,11,28,04,41,6.90
2014,11,28,04,42,6.80
2014,11,28,04,43,6.80
2014,11,28,04,44,6.80
2014,11,28,04,45,6.80
2014,11,28,04,46,6.80
2014,11,28,04,47,6.90
2014,11,28,04,48,6.90
2014,11,28,04,49,6.90
2014,11,28,04,50,7.00
2014,11,28,04,51,7.00
2014,11,28,04,52,7.00
2014,11,28,04,53,7.10
2014,11,28,04,54,7.10
2014,11,28,04,55,7.10
2014,11,28,04,56,7.20
2014,11,28,04,57,7.20
2014,11,28,04,58,7.20
2014,11,28,04,59,7.20
2014,11,28,05,00,7.20
2014,11,28,05,01,7.20
2014,11,28,05,02,7.20
2014,11,28,05,03,7.20
2014,11,28,05,04,7.20
2014,11,28,05,05,7.20
2014,11,28,05,06,7.20
2014,11,28,05,07,7.20
2014,11,28,05,08,7.20
2014,11,28,05,09,7.10
2014,11,28,05,10,7.10
2014,11,28,05,11,7.10
2014,11,28,05,12,7.10
2014,11,28,05,13,7.10
2014,11,28,05,14,7.00
2014,11,28,05,15,7.00
2014,11,28,05,16,7.00
2014,11,28,05,17,7.00
2014,11,28,05,18,6.90
2014,11,28,05,19,6.90
2014,11,28,05,20,6.90
2014,11,28,05,21,6.90
2014,11,28,05,22,6.90
2014,11,28,05,23,6.90
2014,11,28,05,24,6.90
2014,11,28,05,25,6.90
2014,11,28,05,26,6.80
2014,11,28,05,27,6.80
2014,11,28,05,28,6.80
2014,11,28,05,29,6.80
2014,11,28,05,30,6.80
2014,11,28,05,31,6.80
2014,11,28,05,32,6.80
2014,11,28,05,33,6.80
2014,11,28,05,34,6.80
2014,11,28,05,35,6.80
2014,11,28,05,36,6.80
2014,11,28,05,37,6.80
2014,11,28,05,38,6.80
2014,11,28,05,39,6.80
2014,11,28,05,40,6.80
2014,11,28,05,41,6.80
2014,11,28,05,42,6.80
2014,11,28,05,43,6.80
2014,11,28,05,44,6.80
2014,11,28,05,45,6.80
2014,11,28,05,46,6.80
2014,11,28,05,47,6.80
2014,11,28,05,48,6.80
2014,11,28,05,49,6.80
2014,11,28,05,50,6.80
2014,11,28,05,51,6.80
2014,11,28,05,52,6.80
2014,11,28,05,53,6.80
2014,11,28,05,54,6.80
2014,11,28,05,55,6.90
2014,11,28,05,56,6.90
2014,11,28,05,57,6.90
2014,11,28,05,58,6.90
2014,11,28,05,59,6.90
2014,11,28,06,00,6.90
2014,11,28,06,01,6.80
2014,11,28,06,02,6.80
2014,11,28,06,03,6.80
2014,11,28,06,04,6.80
2014,11,28,06,05,6.80
2014,11,28,06,06,6.90
2014,11,28,06,07,6.90
2014,11,28,06,08,6.90
2014,11,28,06,09,6.90
2014,11,28,06,10,6.90
2014,11,28,06,11,6.90
2014,11,28,06,12,6.90
2014,11,28,06,13,6.90
2014,11,28,06,14,6.90
2014,11,28,06,15,7.00
2014,11,28,06,16,7.00
2014,11,28,06,17,6.90
2014,11,28,06,18,6.90
2014,11,28,06,19,6.90
2014,11,28,06,20,6.90
2014,11,28,06,21,6.90
2014,11,28,06,22,6.90
2014,11,28,06,23,7.00
2014,11,28,06,24,7.00
2014,11,28,06,25,7.00
2014,11,28,06,26,7.00
2014,11,28,06,27,6.90
2014,11,28,06,28,6.90
2014,11,28,06,29,6.90
2014,11,28,06,30,6.90
2014,11,28,06,31,6.90
2014,11,28,06,32,6.90
2014,11,28,06,33,6.90
2014,11,28,06,34,6.90
2014,11,28,06,35,6.90
2014,11,28,06,36,6.90
2014,11,28,06,37,6.90
2014,11,28,06,38,6.90
2014,11,28,06,39,6.90
2014,11,28,06,40,6.90
2014,11,28,06,41,6.90
2014,11,28,06,42,6.90
2014,11,28,06,43,6.90
2014,11,28,06,44,6.90
2014,11,28,06,45,6.90
2014,11,28,06,46,6.90
2014,11,28,06,47,6.80
2014,11,28,06,48,6.80
2014,11,28,06,49,6.80
2014,11,28,06,50,6.80
2014,11,28,06,51,6.80
2014,11,28,06,52,6.80
2014,11,28,06,53,6.70
2014,11,28,06,54,6.70
2014,11,28,06,55,6.70
2014,11,28,06,56,6.70
2014,11,28,06,57,6.70
2014,11,28,06,58,6.70
2014,11,28,06,59,6.70
2014,11,28,07,00,6.60
2014,11,28,07,01,6.60
2014,11,28,07,02,6.60
2014,11,28,07,03,6.60
2014,11,28,07,04,6.60
2014,11,28,07,05,6.50
2014,11,28,07,06,6.50
2014,11,28,07,07,6.50
2014,11,28,07,08,6.50
2014,11,28,07,09,6.40
2014,11,28,07,10,6.40
2014,11,28,07,11,6.40
2014,11,28,07,12,6.40
2014,11,28,07,13,6.40
2014,11,28,07,14,6.30
2014,11,28,07,15,6.30
2014,11,28,07,16,6.30
2014,11,28,07,17,6.30
2014,11,28,07,18,6.30
2014,11,28,07,19,6.20
2014,11,28,07,20,6.20
2014,11,28,07,21,6.20
2014,11,28,07,22,6.20
2014,11,28,07,23,6.20
2014,11,28,07,24,6.20
2014,11,28,07,25,6.10
2014,11,28,07,26,6.10
2014,11,28,07,27,6.10
2014,11,28,07,28,6.10
2014,11,28,07,29,6.10
2014,11,28,07,30,6.10
2014,11,28,07,31,6.10
2014,11,28,07,32,6.00
2014,11,28,07,33,6.00
2014,11,28,07,34,6.00
2014,11,28,07,35,5.90
2014,11,28,07,36,5.90
2014,11,28,07,37,6.00
2014,11,28,07,38,5.90
2014,11,28,07,39,5.90
2014,11,28,07,40,5.90
2014,11,28,07,41,5.90
2014,11,28,07,42,5.90
2014,11,28,07,43,5.80
2014,11,28,07,44,5.80
2014,11,28,07,45,5.80
2014,11,28,07,46,5.80
2014,11,28,07,47,5.80
2014,11,28,07,48,5.80
2014,11,28,07,49,5.80
2014,11,28,07,50,5.80
2014,11,28,07,51,5.80
2014,11,28,07,52,5.80
2014,11,28,07,53,5.70
2014,11,28,07,54,5.70
2014,11,28,07,55,5.70
2014,11,28,07,56,5.70
2014,11,28,07,57,5.70
2014,11,28,07,58,5.70
2014,11,28,07,59,5.70
2014,11,28,08,00,5.60
2014,11,28,08,01,5.60
2014,11,28,08,02,5.60
2014,11,28,08,03,5.60
2014,11,28,08,04,5.60
2014,11,28,08,05,5.60
2014,11,28,08,06,5.50
2014,11,28,08,07,5.50
2014,11,28,08,08,5.50
2014,11,28,08,09,5.50
2014,11,28,08,10,5.50
2014,11,28,08,11,5.50
2014,11,28,08,12,5.50
2014,11,28,08,13,5.50
2014,11,28,08,14,5.40
2014,11,28,08,15,5.40
2014,11,28,08,16,5.40
2014,11,28,08,17,5.40
2014,11,28,08,18,5.40
2014,11,28,08,19,5.40
2014,11,28,08,20,5.40
2014,11,28,08,21,5.40
2014,11,28,08,22,5.40
2014,11,28,08,23,5.40
2014,11,28,08,24,5.40
2014,11,28,08,25,5.40
2014,11,28,08,26,5.30
2014,11,28,08,27,5.30
2014,11,28,08,28,5.30
2014,11,28,08,29,5.30
2014,11,28,08,30,5.30
2014,11,28,08,31,5.30
2014,11,28,08,32,5.30
2014,11,28,08,33,5.30
2014,11,28,08,34,5.30
2014,11,28,08,35,5.30
2014,11,28,08,36,5.30
2014,11,28,08,37,5.30
2014,11,28,08,38,5.30
2014,11,28,08,39,5.30
2014,11,28,08,40,5.30
2014,11,28,08,41,5.30
2014,11,28,08,42,5.30
2014,11,28,08,43,5.30
2014,11,28,08,44,5.30
2014,11,28,08,45,5.30
2014,11,28,08,46,5.30
2014,11,28,08,47,5.30
2014,11,28,08,48,5.30
2014,11,28,08,49,5.30
2014,11,28,08,50,5.30
2014,11,28,08,51,5.30
2014,11,28,08,52,5.30
2014,11,28,08,53,5.30
2014,11,28,08,54,5.30
2014,11,28,08,55,5.30
2014,11,28,08,56,5.30
2014,11,28,08,57,5.30
2014,11,28,08,58,5.30
2014,11,28,08,59,5.30
2014,11,28,09,00,5.30
2014,11,28,09,01,5.20
2014,11,28,09,02,5.20
2014,11,28,09,03,5.30
2014,11,28,09,04,5.30
2014,11,28,09,05,5.30
2014,11,28,09,06,5.30
2014,11,28,09,07,5.30
2014,11,28,09,08,5.30
2014,11,28,09,09,5.20
2014,11,28,09,10,5.20
2014,11,28,09,11,5.20
2014,11,28,09,12,5.20
2014,11,28,09,13,5.20
2014,11,28,09,14,5.20
2014,11,28,09,15,5.10
2014,11,28,09,16,5.10
2014,11,28,09,17,5.10
2014,11,28,09,18,5.10
2014,11,28,09,19,5.10
2014,11,28,09,20,5.10
2014,11,28,09,21,5.10
2014,11,28,09,22,5.10
2014,11,28,09,23,5.10
2014,11,28,09,24,5.20
2014,11,28,09,25,5.20
2014,11,28,09,26,5.20
2014,11,28,09,27,5.20
2014,11,28,09,28,5.20
2014,11,28,09,29,5.10
2014,11,28,09,30,5.10
2014,11,28,09,31,5.10
2014,11,28,09,32,5.10
2014,11,28,09,33,5.10
2014,11,28,09,34,5.10
2014,11,28,09,35,5.10
2014,11,28,09,36,5.00
2014,11,28,09,37,5.00
2014,11,28,09,38,5.00
2014,11,28,09,39,5.00
2014,11,28,09,40,5.00
2014,11,28,09,41,5.00
2014,11,28,09,42,5.00
2014,11,28,09,43,5.00
2014,11,28,09,44,5.10
2014,11,28,09,45,5.10
2014,11,28,09,46,5.10
2014,11,28,09,47,5.10
2014,11,28,09,48,5.10
2014,11,28,09,49,5.10
2014,11,28,09,50,5.10
2014,11,28,09,51,5.10
2014,11,28,09,52,5.10
2014,11,28,09,53,5.10
2014,11,28,09,54,5.10
2014,11,28,09,55,5.10
2014,11,28,09,56,5.10
2014,11,28,09,57,5.10
2014,11,28,09,58,5.10
2014,11,28,09,59,5.10
2014,11,28,10,00,5.10
2014,11,28,10,01,5.10
2014,11,28,10,02,5.10
2014,11,28,10,03,5.10
2014,11,28,10,04,5.10
2014,11,28,10,05,5.10
2014,11,28,10,06,5.10
2014,11,28,10,07,5.10
2014,11,28,10,08,5.10
2014,11,28,10,09,5.10
2014,11,28,10,10,5.10
2014,11,28,10,11,5.10
2014,11,28,10,12,5.10
2014,11,28,10,13,5.20
2014,11,28,10,14,5.20
2014,11,28,10,15,5.20
2014,11,28,10,16,5.20
2014,11,28,10,17,5.20
2014,11,28,10,18,5.20
2014,11,28,10,19,5.20
2014,11,28,10,20,5.20
2014,11,28,10,21,5.20
2014,11,28,10,22,5.20
2014,11,28,10,23,5.30
2014,11,28,10,24,5.30
2014,11,28,10,25,5.30
2014,11,28,10,26,5.30
2014,11,28,10,27,5.30
2014,11,28,10,28,5.30
2014,11,28,10,29,5.30
2014,11,28,10,30,5.30
2014,11,28,10,31,5.30
2014,11,28,10,32,5.30
2014,11,28,10,33,5.30
2014,11,28,10,34,5.30
2014,11,28,10,35,5.40
2014,11,28,10,36,5.40
2014,11,28,10,37,5.40
2014,11,28,10,38,5.40
2014,11,28,10,39,5.40
2014,11,28,10,40,5.40
2014,11,28,10,41,5.40
2014,11,28,10,42,5.40
2014,11,28,10,43,5.40
2014,11,28,10,44,5.40
2014,11,28,10,45,5.40
2014,11,28,10,46,5.40
2014,11,28,10,47,5.50
2014,11,28,10,48,5.40
2014,11,28,10,49,5.40
2014,11,28,10,50,5.50
2014,11,28,10,51,5.50
2014,11,28,10,52,5.50
2014,11,28,10,53,5.50
2014,11,28,10,54,5.50
2014,11,28,10,55,5.50
2014,11,28,10,56,5.60
2014,11,28,10,57,5.60
2014,11,28,10,58,5.60
2014,11,28,10,59,5.60
2014,11,28,11,00,5.60
2014,11,28,11,01,5.60
2014,11,28,11,02,5.60
2014,11,28,11,03,5.70
2014,11,28,11,04,5.70
2014,11,28,11,05,5.70
2014,11,28,11,06,5.70
2014,11,28,11,07,5.70
2014,11,28,11,08,5.70
2014,11,28,11,09,5.70
2014,11,28,11,10,5.70
2014,11,28,11,11,5.70
2014,11,28,11,12,5.70
2014,11,28,11,13,5.70
2014,11,28,11,14,5.70
2014,11,28,11,15,5.70
2014,11,28,11,16,5.70
2014,11,28,11,17,5.70
2014,11,28,11,18,5.70
2014,11,28,11,19,5.70
2014,11,28,11,20,5.70
2014,11,28,11,21,5.70
2014,11,28,11,22,5.70
2014,11,28,11,23,5.70
2014,11,28,11,24,5.70
2014,11,28,11,25,5.70
2014,11,28,11,26,5.70
2014,11,28,11,27,5.70
2014,11,28,11,28,5.70
2014,11,28,11,29,5.70
2014,11,28,11,30,5.70
2014,11,28,11,31,5.70
2014,11,28,11,32,5.70
2014,11,28,11,33,5.70
2014,11,28,11,34,5.70
2014,11,28,11,35,5.80
2014,11,28,11,36,5.80
2014,11,28,11,37,5.80
2014,11,28,11,38,5.80
2014,11,28,11,39,5.80
2014,11,28,11,40,5.80
2014,11,28,11,41,5.80
2014,11,28,11,42,5.80
2014,11,28,11,43,5.80
2014,11,28,11,44,5.90
2014,11,28,11,45,5.90
2014,11,28,11,46,5.90
2014,11,28,11,47,5.90
2014,11,28,11,48,5.90
2014,11,28,11,49,5.90
2014,11,28,11,50,5.90
2014,11,28,11,51,5.90
2014,11,28,11,52,5.90
2014,11,28,11,53,6.00
2014,11,28,11,54,6.00
2014,11,28,11,55,6.00
2014,11,28,11,56,6.00
2014,11,28,11,57,6.10
2014,11,28,11,58,6.10
2014,11,28,11,59,6.10
2014,11,28,12,00,6.10
2014,11,28,12,01,6.10
2014,11,28,12,02,6.10
2014,11,28,12,03,6.10
2014,11,28,12,04,6.10
2014,11,28,12,05,6.10
2014,11,28,12,06,6.10
2014,11,28,12,07,6.10
2014,11,28,12,08,6.20
2014,11,28,12,09,6.20
2014,11,28,12,10,6.20
2014,11,28,12,11,6.20
2014,11,28,12,12,6.20
2014,11,28,12,13,6.20
2014,11,28,12,14,6.20
2014,11,28,12,15,6.20
2014,11,28,12,16,6.20
2014,11,28,12,17,6.20
2014,11,28,12,18,6.10
2014,11,28,12,19,6.10
2014,11,28,12,20,6.10
2014,11,28,12,21,6.00
2014,11,28,12,22,6.00
2014,11,28,12,23,5.90
2014,11,28,12,24,5.90
2014,11,28,12,25,5.90
2014,11,28,12,26,5.90
2014,11,28,12,27,5.90
2014,11,28,12,28,5.90
2014,11,28,12,29,5.90
2014,11,28,12,30,5.90
2014,11,28,12,31,5.90
2014,11,28,12,32,6.00
2014,11,28,12,33,6.00
2014,11,28,12,34,6.00
2014,11,28,12,35,6.00
2014,11,28,12,36,6.00
2014,11,28,12,37,6.00
2014,11,28,12,38,6.00
2014,11,28,12,39,6.00
2014,11,28,12,40,6.00
2014,11,28,12,41,5.90
2014,11,28,12,42,5.90
2014,11,28,12,43,5.90
2014,11,28,12,44,5.90
2014,11,28,12,45,5.90
2014,11,28,12,46,5.90
2014,11,28,12,47,5.90
2014,11,28,12,48,5.80
2014,11,28,12,49,5.80
2014,11,28,12,50,5.80
2014,11,28,12,51,5.80
2014,11,28,12,52,5.80
2014,11,28,12,53,5.80
2014,11,28,12,54,5.80
2014,11,28,12,55,5.80
2014,11,28,12,56,5.80
2014,11,28,12,57,5.80
2014,11,28,12,58,5.90
2014,11,28,12,59,5.90
2014,11,28,13,00,5.90
2014,11,28,13,01,5.90
2014,11,28,13,02,6.00
2014,11,28,13,03,6.00
2014,11,28,13,04,6.10
2014,11,28,13,05,6.10
2014,11,28,13,06,6.10
2014,11,28,13,07,6.10
2014,11,28,13,08,6.10
2014,11,28,13,09,6.20
2014,11,28,13,10,6.20
2014,11,28,13,11,6.20
2014,11,28,13,12,6.20
2014,11,28,13,13,6.20
2014,11,28,13,14,6.20
2014,11,28,13,15,6.20
2014,11,28,13,16,6.20
2014,11,28,13,17,6.20
2014,11,28,13,18,6.30
2014,11,28,13,19,6.30
2014,11,28,13,20,6.30
2014,11,28,13,21,6.30
2014,11,28,13,22,6.30
2014,11,28,13,23,6.30
2014,11,28,13,24,6.40
2014,11,28,13,25,6.40
2014,11,28,13,26,6.40
2014,11,28,13,27,6.40
2014,11,28,13,28,6.40
2014,11,28,13,29,6.50
2014,11,28,13,30,6.50
2014,11,28,13,31,6.50
2014,11,28,13,32,6.50
2014,11,28,13,33,6.50
2014,11,28,13,34,6.50
2014,11,28,13,35,6.60
2014,11,28,13,36,6.60
2014,11,28,13,37,6.50
2014,11,28,13,38,6.50
2014,11,28,13,39,6.50
2014,11,28,13,40,6.50
2014,11,28,13,41,6.50
2014,11,28,13,42,6.50
2014,11,28,13,43,6.50
2014,11,28,13,44,6.50
2014,11,28,13,45,6.50
2014,11,28,13,46,6.50
2014,11,28,13,47,6.50
2014,11,28,13,48,6.50
2014,11,28,13,49,6.50
2014,11,28,13,50,6.50
2014,11,28,13,51,6.50
2014,11,28,13,52,6.50
2014,11,28,13,53,6.50
2014,11,28,13,54,6.50
2014,11,28,13,55,6.50
2014,11,28,13,56,6.50
2014,11,28,13,57,6.40
2014,11,28,13,58,6.40
2014,11,28,13,59,6.40
2014,11,28,14,00,6.40
2014,11,28,14,01,6.40
2014,11,28,14,02,6.40
2014,11,28,14,03,6.40
2014,11,28,14,04,6.40
2014,11,28,14,05,6.40
2014,11,28,14,06,6.40
2014,11,28,14,07,6.40
2014,11,28,14,08,6.40
2014,11,28,14,09,6.40
2014,11,28,14,10,6.40
2014,11,28,14,11,6.30
2014,11,28,14,12,6.30
2014,11,28,14,13,6.30
2014,11,28,14,14,6.20
2014,11,28,14,15,6.20
2014,11,28,14,16,6.20
2014,11,28,14,17,6.20
2014,11,28,14,18,6.20
2014,11,28,14,19,6.20
2014,11,28,14,20,6.20
2014,11,28,14,21,6.20
2014,11,28,14,22,6.20
2014,11,28,14,23,6.20
2014,11,28,14,24,6.20
2014,11,28,14,25,6.30
2014,11,28,14,26,6.30
2014,11,28,14,27,6.30
2014,11,28,14,28,6.30
2014,11,28,14,29,6.30
2014,11,28,14,30,6.30
2014,11,28,14,31,6.30
2014,11,28,14,32,6.30
2014,11,28,14,33,6.20
2014,11,28,14,34,6.20
2014,11,28,14,35,6.20
2014,11,28,14,36,6.20
2014,11,28,14,37,6.10
2014,11,28,14,38,6.10
2014,11,28,14,39,6.10
2014,11,28,14,40,6.10
2014,11,28,14,41,6.10
2014,11,28,14,42,6.10
2014,11,28,14,43,6.10
2014,11,28,14,44,6.10
2014,11,28,14,45,6.10
2014,11,28,14,46,6.10
2014,11,28,14,47,6.10
2014,11,28,14,48,6.10
2014,11,28,14,49,6.00
2014,11,28,14,50,6.00
2014,11,28,14,51,6.10
2014,11,28,14,52,6.00
2014,11,28,14,53,6.10
2014,11,28,14,54,6.10
2014,11,28,14,55,6.10
2014,11,28,14,56,6.10
2014,11,28,14,57,6.10
2014,11,28,14,58,6.00
2014,11,28,14,59,6.00
2014,11,28,15,00,6.00
2014,11,28,15,01,6.00
2014,11,28,15,02,5.90
2014,11,28,15,03,5.90
2014,11,28,15,04,5.90
2014,11,28,15,05,5.90
2014,11,28,15,06,5.90
2014,11,28,15,07,5.90
2014,11,28,15,08,5.90
2014,11,28,15,09,6.00
2014,11,28,15,10,6.00
2014,11,28,15,11,5.90
2014,11,28,15,12,5.90
2014,11,28,15,13,5.90
2014,11,28,15,14,5.90
2014,11,28,15,15,5.90
2014,11,28,15,16,5.80
2014,11,28,15,17,5.80
2014,11,28,15,18,5.80
2014,11,28,15,19,5.80
2014,11,28,15,20,5.70
2014,11,28,15,21,5.70
2014,11,28,15,22,5.60
2014,11,28,15,23,5.60
2014,11,28,15,24,5.60
2014,11,28,15,25,5.60
2014,11,28,15,26,5.50
2014,11,28,15,27,5.50
2014,11,28,15,28,5.50
2014,11,28,15,29,5.40
2014,11,28,15,30,5.40
2014,11,28,15,31,5.40
2014,11,28,15,32,5.40
2014,11,28,15,33,5.40
2014,11,28,15,34,5.40
2014,11,28,15,35,5.30
2014,11,28,15,36,5.30
2014,11,28,15,37,5.30
2014,11,28,15,38,5.30
2014,11,28,15,39,5.20
2014,11,28,15,40,5.20
2014,11,28,15,41,5.20
2014,11,28,15,42,5.20
2014,11,28,15,43,5.10
2014,11,28,15,44,5.10
2014,11,28,15,45,5.10
2014,11,28,15,46,5.10
2014,11,28,15,47,5.10
2014,11,28,15,48,5.00
2014,11,28,15,49,4.90
2014,11,28,15,50,4.90
2014,11,28,15,51,4.90
2014,11,28,15,52,4.90
2014,11,28,15,53,4.90
2014,11,28,15,54,4.90
2014,11,28,15,55,4.90
2014,11,28,15,56,4.90
2014,11,28,15,57,4.90
2014,11,28,15,58,4.90
2014,11,28,15,59,4.90
2014,11,28,16,00,4.90
2014,11,28,16,01,5.00
2014,11,28,16,02,5.00
2014,11,28,16,03,5.00
2014,11,28,16,04,5.00
2014,11,28,16,05,5.00
2014,11,28,16,06,5.00
2014,11,28,16,07,5.00
2014,11,28,16,08,5.00
2014,11,28,16,09,5.00
2014,11,28,16,10,5.00
2014,11,28,16,11,5.00
2014,11,28,16,12,5.00
2014,11,28,16,13,4.90
2014,11,28,16,14,4.90
2014,11,28,16,15,4.90
2014,11,28,16,16,4.90
2014,11,28,16,17,4.80
2014,11,28,16,18,4.80
2014,11,28,16,19,4.80
2014,11,28,16,20,4.80
2014,11,28,16,21,4.80
2014,11,28,16,22,4.80
2014,11,28,16,23,4.80
2014,11,28,16,24,4.80
2014,11,28,16,25,4.80
2014,11,28,16,26,4.80
2014,11,28,16,27,4.70
2014,11,28,16,28,4.70
2014,11,28,16,29,4.70
2014,11,28,16,30,4.60
2014,11,28,16,31,4.60
2014,11,28,16,32,4.60
2014,11,28,16,33,4.60
2014,11,28,16,34,4.60
2014,11,28,16,35,4.60
2014,11,28,16,36,4.50
2014,11,28,16,37,4.50
2014,11,28,16,38,4.50
2014,11,28,16,39,4.50
2014,11,28,16,40,4.50
2014,11,28,16,41,4.50
2014,11,28,16,42,4.50
2014,11,28,16,43,4.50
2014,11,28,16,44,4.50
2014,11,28,16,45,4.50
2014,11,28,16,46,4.50
2014,11,28,16,47,4.50
2014,11,28,16,48,4.60
2014,11,28,16,49,4.60
2014,11,28,16,50,4.70
2014,11,28,16,51,4.70
2014,11,28,16,52,4.70
2014,11,28,16,53,4.70
2014,11,28,16,54,4.60
2014,11,28,16,55,4.60
2014,11,28,16,56,4.60
2014,11,28,16,57,4.60
2014,11,28,16,58,4.70
2014,11,28,16,59,4.70
2014,11,28,17,00,4.70
2014,11,28,17,01,4.70
2014,11,28,17,02,4.70
2014,11,28,17,03,4.70
2014,11,28,17,04,4.70
2014,11,28,17,05,4.70
2014,11,28,17,06,4.70
2014,11,28,17,07,4.70
2014,11,28,17,08,4.70
2014,11,28,17,09,4.70
2014,11,28,17,10,4.70
2014,11,28,17,11,4.70
2014,11,28,17,12,4.70
2014,11,28,17,13,4.70
2014,11,28,17,14,4.70
2014,11,28,17,15,4.70
2014,11,28,17,16,4.70
2014,11,28,17,17,4.70
2014,11,28,17,18,4.70
2014,11,28,17,19,4.70
2014,11,28,17,20,4.70
2014,11,28,17,21,4.70
2014,11,28,17,22,4.70
2014,11,28,17,23,4.70
2014,11,28,17,24,4.70
2014,11,28,17,25,4.70
2014,11,28,17,26,4.60
2014,11,28,17,27,4.60
2014,11,28,17,28,4.60
2014,11,28,17,29,4.60
2014,11,28,17,30,4.60
2014,11,28,17,31,4.50
2014,11,28,17,32,4.50
2014,11,28,17,33,4.40
2014,11,28,17,34,4.40
2014,11,28,17,35,4.40
2014,11,28,17,36,4.40
2014,11,28,17,37,4.40
2014,11,28,17,38,4.40
2014,11,28,17,39,4.40
2014,11,28,17,40,4.30
2014,11,28,17,41,4.30
2014,11,28,17,42,4.30
2014,11,28,17,43,4.30
2014,11,28,17,44,4.30
2014,11,28,17,45,4.30
2014,11,28,17,46,4.30
2014,11,28,17,47,4.30
2014,11,28,17,48,4.30
2014,11,28,17,49,4.30
2014,11,28,17,50,4.30
2014,11,28,17,51,4.40
2014,11,28,17,52,4.40
2014,11,28,17,53,4.40
2014,11,28,17,54,4.40
2014,11,28,17,55,4.40
2014,11,28,17,56,4.40
2014,11,28,17,57,4.40
2014,11,28,17,58,4.40